Retour au catalogue

COSMOS 1553

ActifMilitairePO
NORAD 14973·PAYLOAD·🇷🇺 Russia

Lancé May 17, 1984 depuis Plesetsk Cosmodrome

Loading…

Prochains Passages (prochaines 24 heures)

TLE

FraisSource: Space-Track

Époque: Sep 14, 2026, 05:12 UTC

1 14973U 84046A   26257.21706852  .00000073  00000-0  59741-4 0  9999
2 14973  82.9395 186.1063 0032957  26.8363 134.5358 13.75629044123962

Suivez COSMOS 1553 en temps réel avec AllMySat

Download on the App Store